Flag for Namibia Weather past 2 weeks in Windhoek, Namibia

Now
55 °F

Sunny.


Feels Like: 53 °F
Forecast: 43 / 81 °F
Wind: 8 mph from East

Location: Windhoek

Current Time: Sep 4, 2015 at 7:26:59 AM

Latest Report: Sep 4, 2015 at 7:00 AM


Visibility: 10 mi

Pressure: 30.30 "Hg (24.79 "Hg at 1680m altitude)

Humidity: 23%

Dew point: 18 °F

Location of WindhoekLocation

Historic Weather in Windhoek — Graph

°F

Windhoek temperature yesterday

Maximum temperature yesterday: 79 °F (at 4:00 PM)
Minimum temperature yesterday: 50 °F (at 4:00 AM)
Average temperature yesterday: 64 °F

Past Weeks' High & Low Weather Summary

 TemperatureHumidityPressure
High88 °F (Aug 31, 5:00 PM)72% (Aug 25, 5:00 AM)30.33 "Hg (Aug 25, 5:00 AM)
Low45 °F (Sep 1, 6:00 AM)4% (Aug 20, 10:00 AM)29.98 "Hg (Aug 31, 5:00 PM)
Average69 °F25%30.19 "Hg
* Reported Aug 20 6:00 AM — Sep 4 6:00 AM, Windhoek, Weather by CustomWeather, © 2015

Note: Actual official high and low records may vary slightly from our data, if they occured in-between our weather recording intervals... More about our weather records

Advertising

Windhoek weather history for previous 24 hours

 ConditionsComfort  
Time TempWeatherWind HumidityBarometerVisibility
6:00 AM
Fri, Sep 4
50 °FSunny.7 mph25%30.30 "Hg10 mi
2:00 AM52 °FCool.7 mph22%30.24 "HgN/A
1:00 AM54 °FCool.8 mph22%30.27 "HgN/A
12:00 AM55 °FRefreshingly cool.7 mph23%30.27 "HgN/A
11:00 PM
Thu, Sep 3
55 °FRefreshingly cool.7 mph23%30.27 "HgN/A
10:00 PM59 °FRefreshingly cool.5 mph20%30.30 "HgN/A
7:00 PM68 °FClear.5 mph12%30.24 "Hg10 mi
5:00 PM77 °FClear.8 mph6%30.21 "Hg10 mi
4:00 PM79 °FSunny.No wind9%30.21 "Hg10 mi
3:00 PM77 °FSunny.3 mph10%30.21 "Hg10 mi
2:00 PM77 °FSunny.5 mph11%30.24 "Hg10 mi
12:00 PM70 °FSunny.5 mph17%30.30 "Hg10 mi
11:00 AM72 °FSunny.8 mph15%30.33 "Hg10 mi
10:00 AM66 °FSunny.12 mph18%30.33 "Hg10 mi
9:00 AM61 °FSunny.15 mph22%30.33 "Hg10 mi
8:00 AM59 °FSunny.12 mph23%30.33 "Hg10 mi
7:00 AM52 °FSunny.9 mph30%30.30 "Hg10 mi
Weather by CustomWeather, © 2015

See weather overviewHow to use our weather pages